Location: Unspecified
(40.7945°N, 0.0000°E)
Time: 06:50:52
(UTC+00:00)

Explorer 7 - Pass Details

Date: 30 January 2021
Orbit: 484 x 677 km, 50.3° (Epoch: 28 February)

Event Time Altitude Azimuth Distance (km) Brightness Sun altitude
Rises 03:13:23 0° 260° (W) 2,540 - -45.1°
Reaches altitude 10° 03:15:39 10° 269° (W) 1,665 - -44.6°
Maximum altitude 03:19:08 36° 337° (NNW) 799 - -44.0°
Drops below altitude 10° 03:22:43 10° 46° (NE) 1,713 - -43.4°
Exits shadow 03:24:58 - 54° (NE) 2,579 11.0 -42.9°
Sets 03:25:05 0° 55° (NE) 2,626 11.0 -42.9°
